Weather History for VIJP - June, 2013

Change the Weather History Date:

Saturday, June 15, 2013

  Actual Average Record
Temperature  
Mean Temperature 90 °F -  
Max Temperature 97 °F - - ()
Min Temperature 83 °F - - ()
Cooling Degree Days 25    
Growing Degree Days 40 (Base 50)    
Moisture  
Dew Point 73 °F    
Average Humidity 57    
Maximum Humidity 74    
Minimum Humidity 39    
Precipitation  
Precipitation 0.00 in - - ()
Sea Level Pressure  
Sea Level Pressure 29.47 in    
Wind  
Wind Speed 10 mph ()    
Max Wind Speed 16 mph    
Max Gust Speed 26 mph    
Visibility 2.4 miles    
Events      
T = Trace of Precipitation, MM = Missing Value Source: Averaged Metar Reports

Daily Weather History Graph

Daily Weather History Graph

Search for Another Location

Airport or City:

Trip Planner

Search our weather history database for the weather conditions in past years. The results will help you decide how hot, cold, wet, or windy it might be!

Date:

Astronomy

Jun. 15, 2013 Rise Set
Actual Time 5:32 AM IST 7:21 PM IST
Civil Twilight 5:06 AM IST 7:48 PM IST
Nautical Twilight 4:34 AM IST 8:19 PM IST
Astronomical Twilight 4:01 AM IST 8:53 PM IST
Moon 11:10 AM IST (6/15) 11:46 PM IST (6/15)
Length of Visible Light 14h 41m
Length of Day
13h 49m
Waxing Crescent, 35% of the Moon is Illuminated
Jun 15
Waxing Crescent
Jun 16
First Quarter
Jun 23
Full
Jun 30
Last Quarter
Jul 8
New

Hourly Weather History & Observations

Time (IST) Temp. Heat Index Dew Point Humidity Pressure Visibility Wind Dir Wind Speed Gust Speed Precip Events Conditions
12:00 AM 86.0 °F 91.8 °F 71.6 °F 62% 29.50 in 2.5 mi ENE 10.4 mph - N/A   Haze
1:00 AM 86.0 °F 91.8 °F 71.6 °F 62% 29.50 in 2.5 mi ENE 10.4 mph - N/A   Haze
2:00 AM 86.0 °F 93.4 °F 73.4 °F 66% 29.50 in 2.5 mi ENE 9.2 mph - N/A   Haze
2:30 AM 84 °F - 72 °F 58% 29.42 in 2 mi ENE 9.2 mph - -   Haze
4:00 AM 84.2 °F 90.9 °F 73.4 °F 70% 29.50 in 2.5 mi ENE 11.5 mph - N/A   Haze
5:00 AM 84.2 °F 90.9 °F 73.4 °F 70% 29.47 in 2.5 mi ENE 10.4 mph - N/A   Haze
5:30 AM 84 °F - 73 °F 63% 29.41 in 2 mi ENE 10.4 mph - -   Haze
5:30 AM 84.2 °F 90.9 °F 73.4 °F 70% 29.50 in 2.5 mi East 9.2 mph - N/A   Haze
6:00 AM 82.4 °F 88.2 °F 73.4 °F 74% 29.50 in 2.5 mi East 9.2 mph - N/A   Haze
7:00 AM 84.2 °F 92.3 °F 75.2 °F 74% 29.50 in 2.5 mi East 12.7 mph - N/A   Haze
8:00 AM 86.0 °F 95.1 °F 75.2 °F 70% 29.53 in 2.5 mi East 11.5 mph 26.5 mph N/A   Haze
8:30 AM 87 °F - 78 °F 68% 29.44 in 2 mi East 11.5 mph - -   Haze
9:00 AM 87.8 °F 97.6 °F 75.2 °F 66% 29.53 in 2.5 mi East 12.7 mph - N/A   Haze
10:00 AM 89.6 °F 98.2 °F 73.4 °F 59% 29.53 in 2.5 mi East 12.7 mph - N/A   Haze
11:00 AM 91.4 °F 100.1 °F 73.4 °F 55% 29.50 in 2.5 mi East 15.0 mph - N/A   Haze
11:30 AM 93 °F - 72 °F 40% 29.42 in 2 mi East 12.7 mph - -   Haze
12:00 PM 93.2 °F 100.5 °F 71.6 °F 49% 29.50 in 2.5 mi East 12.7 mph 25.3 mph N/A   Haze
1:00 PM 95.0 °F 103.2 °F 71.6 °F 47% 29.47 in 2.5 mi East 12.7 mph - N/A   Haze
2:00 PM 96.8 °F 105.1 °F 71.6 °F 44% 29.47 in 2.5 mi East 10.4 mph - N/A   Haze
2:30 PM 96 °F - 80 °F 52% 29.39 in 2 mi East 13.8 mph - -   Haze
3:00 PM 96.8 °F 103.1 °F 69.8 °F 41% 29.44 in 2.5 mi East 10.4 mph - N/A   Haze
4:00 PM 98.6 °F 105.5 °F 69.8 °F 39% 29.42 in 2.5 mi ENE 10.4 mph - N/A   Haze
5:00 PM 96.8 °F 103.1 °F 69.8 °F 41% 29.42 in 2.5 mi NE 13.8 mph - N/A   Haze
5:30 PM 96 °F - 79 °F 49% 29.39 in 2 mi ENE 12.7 mph - -   Haze
6:00 PM 96.8 °F 101.8 °F 68.0 °F 39% 29.42 in 2.5 mi NE 11.5 mph - N/A   Haze
7:00 PM 93.2 °F 100.5 °F 71.6 °F 49% 29.44 in 2.5 mi East 15.0 mph - N/A   Haze
8:00 PM 91.4 °F 98.4 °F 71.6 °F 52% 29.44 in 2.5 mi East 16.1 mph - N/A   Haze
8:30 PM 90 °F - 74 °F 50% 29.37 in 2 mi ESE 9.2 mph - -   Haze
9:00 PM 89.6 °F 98.2 °F 73.4 °F 59% 29.50 in 2.5 mi East 13.8 mph - N/A   Haze
10:00 PM 86.0 °F 93.4 °F 73.4 °F 66% 29.50 in 2.5 mi East 12.7 mph - N/A   Haze
11:00 PM 84.2 °F 89.6 °F 71.6 °F 66% 29.53 in 2.5 mi East 11.5 mph - N/A   Haze